Simultaneous Nadir Overpasses (SNOs) Predictions

Prediction of SNOs between LANDSAT-8 and NOAA-19 Satellite Orbit:

Table of predicted SNOs for the next 14.0 days since TLE Epoch: 9/1/2017
Index Date (LANDSAT-8) Time (LANDSAT-8) Lat,Lon (LANDSAT-8) SZA (LANDSAT-8 ) Date (NOAA-19) Time (NOAA-19) Lat,Lon (NOAA-19) SZA (NOAA-19 ) Distance(km) Time Diff (sec)
1 09/02/2017 02:05:57 76.56, 158.57 68.82 09/02/2017 02:05:11 76.56, 158.50 68.81 1.82 46
2 09/02/2017 02:55:26 -76.48, -34.05 111.26 09/02/2017 02:56:12 -76.51, -34.05 111.23 2.71 46
3 09/04/2017 07:39:42 -76.56,-104.84 110.35 09/04/2017 07:38:59 -76.56,-104.89 110.37 1.29 43
4 09/04/2017 08:29:09 76.50, 62.58 69.59 09/04/2017 08:29:56 76.49, 62.66 69.59 2.52 47
5 09/06/2017 13:13:25 76.58, -8.23 70.50 09/06/2017 13:12:43 76.57, -8.30 70.49 1.95 42
6 09/06/2017 14:02:54 -76.51, 159.16 109.57 09/06/2017 14:03:45 -76.51, 159.17 109.55 0.78 51
7 09/08/2017 18:47:10 -76.58, 88.35 108.65 09/08/2017 18:46:32 -76.58, 88.29 108.67 1.77 38
8 09/08/2017 19:36:37 76.51,-104.24 71.29 09/08/2017 19:37:28 76.51,-104.16 71.29 2.17 51
9 09/11/2017 00:20:53 76.59,-175.07 72.21 09/11/2017 00:20:15 76.59,-175.15 72.21 2.32 38
10 09/11/2017 01:10:22 -76.52, -7.66 107.86 09/11/2017 01:11:18 -76.54, -7.68 107.83 2.31 56
11 09/13/2017 05:54:38 -76.59, -78.49 106.93 09/13/2017 05:54:04 -76.57, -78.43 106.95 2.68 34
12 09/13/2017 06:44:05 76.51, 88.90 73.00 09/13/2017 06:45:00 76.54, 88.96 73.04 2.88 55
13 09/15/2017 11:28:21 76.58, 18.06 73.93 09/15/2017 11:27:46 76.59, 18.13 73.93 2.07 35




NCC Satellite Simultaneous Nadir Overpasses (SNOs) Prediction Service
